Clearfield, PA

6:50 AM EST on November 25, 2017 (GMT -0500)
Clearfield-Lawrence

Weather History for KFIG - January, 2014

Change the Weather History Date:

Thursday, January 2, 2014

  Actual Average (KDUJ) Record (KDUJ)
Temperature  
Mean Temperature 16 °F -  
Max Temperature 21 °F 29 °F 51 °F (2005)
Min Temperature 9 °F 17 °F -4 °F (1968)
Degree Days  
Heating Degree Days 50    
Moisture  
Dew Point 15 °F    
Average Humidity 88    
Maximum Humidity 93    
Minimum Humidity 73    
Precipitation  
Precipitation 0.06 in - - ()
Sea Level Pressure  
Sea Level Pressure 29.84 in    
Wind  
Wind Speed 9 mph (NE)    
Max Wind Speed 16 mph    
Max Gust Speed 24 mph    
Visibility 4 miles    
Events Snow    
Averages and records for this station are not official NWS values.
T = Trace of Precipitation, MM = Missing Value Source: NWS Daily Summary

Daily Weather History Graph

Daily Weather History Graph

Search for Another Location

Airport or City:

Trip Planner

Search our weather history database for the weather conditions in past years. The results will help you decide how hot, cold, wet, or windy it might be!

Date:

Astronomy

Jan. 02, 2014 Rise Set
Actual Time 7:38 AM EST 4:56 PM EST
Civil Twilight 7:07 AM EST 5:27 PM EST
Nautical Twilight 6:33 AM EST 6:02 PM EST
Astronomical Twilight 5:59 AM EST 6:35 PM EST
Moon 8:17 AM EST (1/2) 6:52 PM EST (1/2)
Length of Visible Light 10h 19m
Length of Day
9h 18m
New Moon, 2% of the Moon is Illuminated
Jan 2
New Moon
Jan 7
First Quarter
Jan 15
Full
Jan 24
Last Quarter
Jan 30
New

Hourly Weather History & Observations

Time (EST) Temp. Windchill Dew Point Humidity Pressure Visibility Wind Dir Wind Speed Gust Speed Precip Events Conditions
12:54 AM 21.0 °F 12.4 °F 19.0 °F 92% 30.12 in 10.0 mi ENE 6.9 mph - N/A   Overcast
1:54 AM 21.0 °F 12.4 °F 19.0 °F 92% 30.11 in 10.0 mi NE 6.9 mph - N/A   Overcast
2:54 AM 21.0 °F 11.4 °F 19.0 °F 92% 30.10 in 10.0 mi NE 8.1 mph - N/A   Overcast
3:54 AM 21.0 °F 11.4 °F 19.0 °F 92% 30.07 in 10.0 mi ENE 8.1 mph - 0.00 in   Overcast
4:33 AM 21.0 °F 11.4 °F 19.0 °F 92% 30.00 in 10.0 mi ENE 8.1 mph - N/A   Overcast
4:54 AM 21.0 °F 13.4 °F 19.0 °F 92% 30.05 in 10.0 mi ENE 5.8 mph - N/A   Overcast
5:54 AM 21.0 °F 10.6 °F 19.0 °F 92% 30.04 in 10.0 mi ENE 9.2 mph - N/A   Overcast
6:54 AM 21.0 °F 12.4 °F 19.0 °F 92% 30.02 in 10.0 mi ENE 6.9 mph - N/A   Overcast
7:07 AM 21.0 °F 12.4 °F 19.0 °F 92% 29.94 in 10.0 mi ENE 6.9 mph - N/A   Overcast
7:54 AM 21.0 °F 11.4 °F 18.0 °F 88% 30.00 in 10.0 mi ENE 8.1 mph - N/A   Overcast
8:54 AM 21.0 °F 10.6 °F 18.0 °F 88% 29.99 in 9.0 mi NE 9.2 mph - N/A   Overcast
9:54 AM 21.0 °F 10.6 °F 18.0 °F 88% 29.96 in 8.0 mi NE 9.2 mph - N/A   Overcast
10:54 AM 21.0 °F 9.9 °F 19.0 °F 92% 29.95 in 6.0 mi ENE 10.4 mph - N/A   Overcast
11:54 AM 21.0 °F 11.4 °F 19.0 °F 92% 29.88 in 4.0 mi NE 8.1 mph - 0.00 in Snow Light Snow
12:54 PM 21.0 °F 9.9 °F 19.0 °F 92% 29.83 in 4.0 mi NE 10.4 mph - 0.00 in Snow Light Snow
1:29 PM 21.0 °F 12.4 °F 19.0 °F 92% 29.76 in 2.5 mi ENE 6.9 mph - 0.01 in Snow Light Snow
1:49 PM 21.2 °F 12.6 °F 19.4 °F 93% 29.74 in 3.0 mi NE 6.9 mph - 0.01 in Snow Light Snow
1:54 PM 21.0 °F 11.4 °F 19.0 °F 92% 29.81 in 2.5 mi NE 8.1 mph - 0.01 in Snow Light Snow
2:03 PM 21.0 °F 9.9 °F 18.0 °F 88% 29.73 in 1.5 mi NE 10.4 mph - 0.01 in Snow Light Snow
2:25 PM 21.0 °F 10.6 °F 18.0 °F 88% 29.73 in 1.0 mi ENE 9.2 mph - 0.01 in Snow Light Snow
2:32 PM 21.0 °F 9.9 °F 19.0 °F 92% 29.73 in 1.0 mi ENE 10.4 mph - 0.01 in Snow Light Snow
2:54 PM 21.0 °F 11.4 °F 18.0 °F 88% 29.78 in 1.2 mi NE 8.1 mph - 0.01 in Snow Light Snow
3:03 PM 21.0 °F 9.9 °F 18.0 °F 88% 29.71 in 1.5 mi ENE 10.4 mph - 0.00 in Snow Light Snow
3:14 PM 21.0 °F 9.3 °F 18.0 °F 88% 29.71 in 2.5 mi ENE 11.5 mph - 0.00 in Snow Light Snow
3:40 PM 21.0 °F 9.3 °F 17.1 °F 85% 29.70 in 3.0 mi ENE 11.5 mph - 0.00 in Snow Light Snow
3:50 PM 21.2 °F 9.5 °F 17.6 °F 86% 29.70 in 1.8 mi ENE 11.5 mph - 0.00 in Snow Light Snow
3:54 PM 21.0 °F 9.3 °F 17.1 °F 85% 29.76 in 1.8 mi NE 11.5 mph - 0.00 in Snow Light Snow
4:54 PM 19.9 °F 10.1 °F 18.0 °F 92% 29.75 in 0.8 mi NE 8.1 mph - 0.01 in Snow Light Snow
5:13 PM 19.9 °F 10.1 °F 18.0 °F 92% 29.69 in 1.0 mi NE 8.1 mph - 0.01 in Snow Light Snow
5:18 PM 19.9 °F 12.1 °F 18.0 °F 92% 29.69 in 1.0 mi NE 5.8 mph - 0.01 in Snow Light Snow
5:32 PM 19.9 °F 7.3 °F 17.1 °F 89% 29.67 in 1.0 mi NNE 12.7 mph - 0.01 in Snow Light Snow
5:54 PM 19.0 °F 7.5 °F 16.0 °F 88% 29.76 in 1.5 mi NE 10.4 mph - 0.02 in Snow Light Snow
6:54 PM 18.0 °F 8.7 °F 16.0 °F 92% 29.78 in 1.2 mi NNE 6.9 mph - 0.00 in Snow Light Snow
7:54 PM 15.1 °F 2.5 °F 12.0 °F 88% 29.79 in 1.8 mi North 10.4 mph - 0.01 in Snow Light Snow
8:03 PM 15.1 °F 2.5 °F 10.9 °F 84% 29.72 in 2.5 mi NNE 10.4 mph - 0.00 in Snow Light Snow
8:54 PM 14.0 °F 1.2 °F 9.0 °F 80% 29.80 in 2.0 mi NNE 10.4 mph - 0.00 in Snow Light Snow
9:47 PM 12.0 °F -2.0 °F 7.0 °F 80% 29.74 in 2.5 mi North 11.5 mph - 0.00 in Snow Light Snow
9:54 PM 12.0 °F -2.0 °F 7.0 °F 80% 29.81 in 2.5 mi North 11.5 mph - 0.00 in Snow Light Snow
10:03 PM 12.0 °F -3.4 °F 7.0 °F 80% 29.74 in 1.8 mi NNE 13.8 mph 19.6 mph 0.00 in Snow Light Snow
10:13 PM 10.9 °F 0.2 °F 7.0 °F 84% 29.74 in 2.5 mi North 6.9 mph - 0.00 in Snow Light Snow
10:19 PM 10.9 °F -3.4 °F 7.0 °F 84% 29.74 in 3.0 mi North 11.5 mph - 0.00 in Snow Light Snow
10:54 PM 10.9 °F -4.1 °F 5.0 °F 77% 29.83 in 4.0 mi NNE 12.7 mph 21.9 mph 0.00 in Snow Light Snow
11:23 PM 10.0 °F -2.9 °F 6.1 °F 84% 29.77 in 4.0 mi North 9.2 mph - 0.00 in Snow Light Snow
11:32 PM 10.0 °F -5.2 °F 3.9 °F 76% 29.77 in 7.0 mi North 12.7 mph 23.0 mph 0.00 in Snow Light Snow
11:54 PM 9.0 °F -8.5 °F 1.9 °F 73% 29.87 in 9.0 mi North 16.1 mph 24.2 mph 0.00 in Snow Light Snow